Weather History for Lethbridge, Alberta

Change the Weather History Date:

Tuesday, October 1, 2013

  Actual Average Record
Temperature  
Mean Temperature 47 °F -  
Max Temperature 55 °F 53 °F - ()
Min Temperature 39 °F 30 °F - ()
Degree Days  
Heating Degree Days 18    
Moisture  
Dew Point 28 °F    
Average Humidity 46    
Maximum Humidity 69    
Minimum Humidity 21    
Precipitation  
Precipitation 0.00 in - - ()
Sea Level Pressure  
Sea Level Pressure 29.80 in    
Wind  
Wind Speed 15 mph ()    
Max Wind Speed 26 mph    
Max Gust Speed -    
T = Trace of Precipitation, MM = Missing Value Source: Averaged Metar Reports

Daily Weather History Graph

Daily Weather History Graph

Search for Another Location

Airport:

Trip Planner

Search our weather history database for the weather conditions in past years. The results will help you decide how hot, cold, wet, or windy it might be!

Date:

Astronomy

Oct. 01, 2013 Rise Set
Actual Time 7:31 AM MDT 7:08 PM MDT
Civil Twilight 6:59 AM MDT 7:40 PM MDT
Nautical Twilight 6:22 AM MDT 8:17 PM MDT
Astronomical Twilight 5:44 AM MDT 8:55 PM MDT
Moon 3:53 AM MDT (10/1) 5:27 PM MDT (10/1)
Length of Visible Light 12h 41m
Length of Day
11h 37m
Waning Crescent, 11% of the Moon is Illuminated
Oct 1
Waning Crescent
Oct 4
New
Oct 11
First Quarter
Oct 18
Full
Oct 26
Last Quarter

Hourly Weather History & Observations

Time (MDT) Temp. Windchill Dew Point Humidity Pressure Visibility Wind Dir Wind Speed Gust Speed Precip Events Conditions
12:00 AM 48 °F - 29 °F 35% 29.68 in - WSW 18.4 mph - -  
12:00 AM 47.7 °F - 28.8 °F 48% 29.68 in - WSW 18.4 mph - N/A   Unknown
1:00 AM 44.6 °F 37.4 °F 30.6 °F 58% 29.70 in - WSW 16.1 mph - N/A   Unknown
2:00 AM 45.0 °F 37.9 °F 31.1 °F 58% 29.71 in - WSW 16.1 mph - N/A   Unknown
3:00 AM 44.6 °F 37.8 °F 31.3 °F 60% 29.72 in - WSW 15.0 mph - N/A   Unknown
4:00 AM 43.9 °F 37.9 °F 32.0 °F 63% 29.74 in - SW 11.5 mph - N/A   Unknown
5:00 AM 41.4 °F 35.7 °F 31.6 °F 68% 29.75 in - SSW 9.2 mph - N/A   Unknown
6:00 AM 42 °F - 31 °F 53% 29.76 in - SW 16.1 mph - -  
6:00 AM 42.1 °F 33.9 °F 30.7 °F 64% 29.76 in - WSW 17.3 mph - N/A   Unknown
7:00 AM 40.8 °F 34.1 °F 30.9 °F 68% 29.78 in - WSW 11.5 mph - N/A   Unknown
8:00 AM 39.9 °F 33.4 °F 30.4 °F 69% 29.79 in - SW 10.4 mph - N/A   Unknown
9:00 AM 44.8 °F 37.7 °F 30.0 °F 56% 29.78 in - WSW 16.1 mph - N/A   Unknown
10:00 AM 49.1 °F - 27.9 °F 44% 29.78 in - WSW 20.7 mph - N/A   Unknown
11:00 AM 50.5 °F - 26.4 °F 39% 29.78 in - West 25.3 mph - N/A   Unknown
12:00 PM 54 °F - 27 °F 22% 29.78 in - West 24.2 mph - -  
12:00 PM 53.8 °F - 26.6 °F 35% 29.78 in - West 24.2 mph - N/A   Unknown
3:00 PM 55.2 °F - 24.8 °F 31% 29.81 in - West 26.5 mph - N/A   Unknown
4:00 PM 55.4 °F - 24.3 °F 30% 29.83 in - West 24.2 mph - N/A   Unknown
5:00 PM 54.0 °F - 23.7 °F 31% 29.85 in - West 21.9 mph - N/A   Unknown
6:00 PM 52 °F - 24 °F 21% 29.86 in - West 24.2 mph - -  
6:00 PM 52.3 °F - 23.9 °F 33% 29.86 in - West 23.0 mph - N/A   Unknown
7:00 PM 48.9 °F - 23.9 °F 38% 29.90 in - West 9.2 mph - N/A   Unknown
8:00 PM 46.2 °F 41.7 °F 24.6 °F 43% 29.93 in - West 9.2 mph - N/A   Unknown
9:00 PM 46.9 °F - 25.9 °F 44% 29.93 in - West 16.1 mph - N/A   Unknown
10:00 PM 46.0 °F 38.8 °F 27.3 °F 48% 29.92 in - WSW 18.4 mph - N/A   Unknown
11:00 PM 45.3 °F 37.6 °F 27.7 °F 50% 29.93 in - West 19.6 mph - N/A   Unknown